Weather History for KEYW - December, 2013

Change the Weather History Date:

Monday, December 23, 2013

  Actual Average Record
Temperature  
Mean Temperature 79 °F 70 °F  
Max Temperature 82 °F 75 °F 88 °F (1876)
Min Temperature 76 °F 66 °F 49 °F (1954)
Degree Days  
Heating Degree Days 0 1  
Month to date heating degree days 0 7  
Since 1 July heating degree days 0 8  
Cooling Degree Days 14 6  
Month to date cooling degree days 258 170  
Year to date cooling degree days 5019 4703  
Growing Degree Days 30 (Base 50)    
Moisture  
Dew Point 73 °F    
Average Humidity 81    
Maximum Humidity 88    
Minimum Humidity 74    
Precipitation  
Precipitation T in 0.07 in 4.60 in (1959)
Month to date precipitation 0.94 1.76  
Year to date precipitation 46.54 39.37  
Snow  
Snow 0.00 in - - ()
Month to date snowfall 0.0  
Since 1 July snowfall 0.0  
Snow Depth 0.00 in    
Sea Level Pressure  
Sea Level Pressure 30.13 in    
Wind  
Wind Speed 10 mph (SE)    
Max Wind Speed 17 mph    
Max Gust Speed 22 mph    
Visibility 10 miles    
Events Rain    
T = Trace of Precipitation, MM = Missing Value Source: NWS Daily Summary

Daily Weather History Graph

Daily Weather History Graph

Search for Another Location

Airport or City:

Trip Planner

Search our weather history database for the weather conditions in past years. The results will help you decide how hot, cold, wet, or windy it might be!

Date:

Astronomy

Dec. 23, 2013 Rise Set
Actual Time 7:07 AM EST 5:44 PM EST
Civil Twilight 6:42 AM EST 6:09 PM EST
Nautical Twilight 6:14 AM EST 6:38 PM EST
Astronomical Twilight 5:46 AM EST 7:06 PM EST
Moon 11:17 PM EST (12/23) 11:05 AM EST (12/23)
Length of Visible Light 11h 26m
Length of Day
10h 37m
Waning Gibbous, 68% of the Moon is Illuminated
Dec 23
Waning Gibbous
Dec 25
Last Quarter
Jan 1
New
Jan 7
First Quarter
Jan 15
Full

Hourly Weather History & Observations

Time (EST) Temp. Heat Index Dew Point Humidity Pressure Visibility Wind Dir Wind Speed Gust Speed Precip Events Conditions
12:13 AM 77.0 °F - 73.9 °F 90% 30.13 in 10.0 mi ESE 12.7 mph - N/A   Scattered Clouds
12:53 AM 77.0 °F - 73.9 °F 90% 30.12 in 10.0 mi ESE 13.8 mph - N/A   Clear
1:53 AM 77.0 °F - 73.9 °F 90% 30.11 in 10.0 mi ESE 12.7 mph - N/A   Clear
2:53 AM 77.0 °F - 73.9 °F 90% 30.10 in 10.0 mi SE 15.0 mph - N/A   Clear
3:53 AM 77.0 °F - 73.0 °F 88% 30.10 in 10.0 mi ESE 13.8 mph - N/A   Clear
4:53 AM 77.0 °F - 73.0 °F 88% 30.10 in 10.0 mi ESE 13.8 mph - N/A   Clear
5:53 AM 77.0 °F - 73.0 °F 88% 30.11 in 10.0 mi SE 11.5 mph - N/A   Scattered Clouds
6:09 AM 77.0 °F - 73.0 °F 88% 30.11 in 10.0 mi SE 11.5 mph - N/A   Mostly Cloudy
6:17 AM 77.0 °F - 73.0 °F 88% 30.11 in 10.0 mi ESE 12.7 mph - N/A   Scattered Clouds
6:53 AM 77.0 °F - 73.0 °F 88% 30.12 in 10.0 mi SE 10.4 mph - N/A   Mostly Cloudy
7:19 AM 77.0 °F - 73.0 °F 88% 30.13 in 10.0 mi ESE 11.5 mph - N/A   Scattered Clouds
7:30 AM 77.0 °F - 73.0 °F 88% 30.13 in 10.0 mi SE 11.5 mph - N/A   Mostly Cloudy
7:44 AM 77.0 °F - 73.0 °F 88% 30.13 in 10.0 mi SE 12.7 mph - N/A   Scattered Clouds
7:53 AM 78.1 °F - 73.0 °F 84% 30.14 in 10.0 mi SE 11.5 mph - N/A   Mostly Cloudy
8:21 AM 78.1 °F - 73.9 °F 87% 30.14 in 10.0 mi ESE 11.5 mph - N/A   Scattered Clouds
8:53 AM 79.0 °F - 73.9 °F 84% 30.15 in 10.0 mi SE 11.5 mph - N/A   Clear
9:53 AM 80.1 °F 85.1 °F 75.0 °F 85% 30.17 in 10.0 mi ESE 10.4 mph - N/A   Clear
10:53 AM 81.0 °F 86.2 °F 73.9 °F 79% 30.17 in 10.0 mi SE 8.1 mph - N/A   Clear
11:53 AM 81.0 °F 86.2 °F 73.9 °F 79% 30.16 in 10.0 mi SE 9.2 mph - N/A   Clear
12:53 PM 82.0 °F 87.9 °F 73.9 °F 76% 30.14 in 10.0 mi SSE 10.4 mph - N/A   Clear
1:53 PM 81.0 °F 85.8 °F 73.0 °F 77% 30.12 in 10.0 mi SSE 8.1 mph - N/A   Mostly Cloudy
2:53 PM 80.1 °F 84.2 °F 73.0 °F 79% 30.12 in 10.0 mi SSE 6.9 mph - N/A   Clear
3:12 PM 80.1 °F 84.2 °F 73.0 °F 79% 30.12 in 10.0 mi SSE 5.8 mph - N/A   Mostly Cloudy
3:32 PM 79.0 °F - 73.0 °F 82% 30.12 in 10.0 mi SE 8.1 mph - 0.00 in Rain Light Rain
3:53 PM 79.0 °F - 73.9 °F 84% 30.12 in 10.0 mi SSE 8.1 mph - 0.00 in   Partly Cloudy
4:12 PM 80.1 °F 84.5 °F 73.9 °F 81% 30.11 in 10.0 mi ESE 5.8 mph - N/A   Mostly Cloudy
4:53 PM 79.0 °F - 73.9 °F 84% 30.11 in 10.0 mi SE 5.8 mph - 0.00 in Rain Light Rain
5:38 PM 78.1 °F - 73.9 °F 87% 30.12 in 10.0 mi ESE 9.2 mph - 0.00 in   Scattered Clouds
5:53 PM 78.1 °F - 73.9 °F 87% 30.12 in 10.0 mi ESE 8.1 mph - 0.00 in   Clear
6:53 PM 78.1 °F - 73.9 °F 87% 30.14 in 10.0 mi ESE 6.9 mph - N/A   Clear
7:53 PM 77.0 °F - 73.0 °F 88% 30.15 in 10.0 mi East 6.9 mph - N/A   Clear
8:53 PM 77.0 °F - 73.0 °F 88% 30.15 in 10.0 mi ESE 6.9 mph - N/A   Clear
9:53 PM 77.0 °F - 73.0 °F 88% 30.16 in 10.0 mi ESE 9.2 mph - N/A   Clear
10:53 PM 77.0 °F - 72.0 °F 84% 30.17 in 10.0 mi ESE 9.2 mph - N/A   Clear
11:53 PM 75.9 °F - 72.0 °F 87% 30.16 in 10.0 mi ESE 6.9 mph - N/A   Clear